Location: Leeds
(37.2390°N, 113.3580°W)
Time: 19:34:08
(UTC-06:00)

Daily predictions for brighter satellites

Satellite Brightness Start Highest point End
(mag) Time Altitude Azimuth Time Altitude Azimuth Time Altitude Azimuth
Lacrosse 5 4.3 20:35:08 10° WNW 20:38:41 19° WSW 20:42:15 10° SSW
USA 267 4.3 20:34:00 10° NE 20:40:17 51° NW 20:46:33 10° WSW
Cosmos 2227 Rocket 3.5 20:37:16 10° NW 20:42:36 44° WSW 20:47:54 10° S
Cosmos 1869 Rocket 4.3 20:38:35 10° NNE 20:42:42 35° ENE 20:46:47 10° SE
FengYun 1-2 T 4.3 20:40:45 10° SSE 20:46:24 88° ENE 20:52:06 10° NNW
Cosmos 1151 Rocket 4.0 20:43:16 10° SSW 20:47:30 53° W 20:51:44 10° N
Cosmos 1302 Rocket 4.2 20:42:31 10° S 20:47:31 50° ESE 20:52:31 10° NNE
Envisat 4.2 20:44:04 10° ESE 20:48:08 25° ENE 20:52:14 10° NNE
SL-16 R/B 3.2 20:44:47 10° SSE 20:49:10 23° E 20:53:33 10° NE
GPS 2-04 Rocket1 3.8 20:52:15 10° W 20:55:24 29° SSW 20:58:40 10° SE
ATLAS 5 CENTAUR R/B 4.4 20:58:26 10° N 21:00:59 13° NE 21:03:36 10° ENE
OAO 3 Rocket 3.5 20:57:47 10° WSW 21:02:33 53° SSE 21:07:08 11° E
Resurs 01 Rocket 1.8 21:01:54 10° S 21:06:19 80° WSW 21:10:48 10° NNW
GRACE-1 3.8 21:03:52 10° N 21:06:35 56° E 21:09:16 10° S
GRACE-2 3.8 21:04:17 10° N 21:06:59 56° E 21:09:40 10° S
Helios 1A 3.5 21:03:37 10° SE 21:07:36 42° ENE 21:11:37 10° N
SAR-Lupe-4 4.2 21:07:08 12° SE 21:10:05 38° ENE 21:13:27 10° N
Atlas Centaur 2 3.7 21:05:47 10° SSW 21:11:38 28° SSE 21:16:54 14° ESE
USA 234 3.6 21:07:21 13° ESE 21:13:09 54° NE 21:19:30 10° NW
Cosmos 2360 4.4 21:11:52 10° SSW 21:17:35 81° WNW 21:23:21 10° NNE
Cosmos 2227 4.3 21:12:56 10° NNW 21:18:39 62° ENE 21:23:23 15° SE
ATLAS CENTAUR R/B 2.9 21:18:28 10° WNW 21:21:12 42° SW 21:27:37 10° SSE
Cosmos 1408 3.4 21:19:47 10° NNE 21:23:08 32° ENE 21:24:35 23° ESE
ERBS 3.6 21:21:30 10° NNW 21:24:33 28° NE 21:26:02 20° E
ERS-1 Rocket 4.1 21:22:11 18° ESE 21:24:36 26° ENE 21:28:44 10° NNE
Cosmos 2142 Rocket 4.4 21:19:54 10° S 21:25:57 69° E 21:32:04 10° NNE
Cosmos 1455 3.0 21:22:24 10° SSW 21:26:08 52° W 21:29:50 10° N
Molniya-1 3.9 21:24:36 10° SW 21:26:09 37° NW 21:28:02 10° NNE
SAR-Lupe-1 4.2 21:25:19 20° SSE 21:27:35 56° ENE 21:31:07 10° N
Cosmos 1486 Rocket 4.0 21:24:28 10° NNW 21:29:44 87° ENE 21:34:21 14° SSE
Cosmos 1869 3.2 21:26:44 10° S 21:30:39 85° E 21:34:37 10° N
OTV 4 2.0 21:31:13 10° W 21:33:32 22° SSW 21:34:14 20° S
Cosmos 220 Rocket 4.3 21:32:51 10° N 21:37:12 50° ENE 21:39:12 28° SE
Cosmos 1992 Rocket 4.2 21:36:17 10° S 21:41:18 49° ESE 21:46:20 10° NNE
SeaSat 1 4.0 21:39:59 17° E 21:41:40 21° NE 21:45:17 10° N
USA 186 3.4 21:42:33 11° SSW 21:44:43 27° W 21:47:10 10° NW
Milstar 3 3.4 21:40:36 10° WSW 21:47:53 41° S 21:50:57 26° SE
Cosmos 2026 Rocket 3.9 21:43:23 10° N 21:49:39 80° E 21:54:29 17° S
Cosmos 1933 3.5 21:50:28 40° SE 21:51:26 50° E 21:55:21 10° NNE
USA 229 DEB 4.4 21:51:55 27° ESE 21:51:55 27° ESE 21:57:30 10° NE
USA 229 4.5 21:52:13 27° ESE 21:52:13 27° ESE 21:57:35 10° NE
Cosmos 1315 Rocket 4.1 21:48:27 10° NNW 21:52:17 40° W 21:56:04 10° SSW
YAOGAN 6 2.7 21:54:41 50° ESE 21:55:05 53° ENE 21:58:39 10° N
DELTA 2 R/B (1) 4.0 21:51:58 10° W 21:57:22 49° SSW 21:59:32 32° SSE
Cosmos 1503 Rocket 3.9 21:55:37 10° NNW 22:00:54 85° ENE 22:03:11 35° SSE
CZ-3B DEB 3.4 22:00:33 10° W 22:00:58 10° WSW 22:01:20 10° WSW
Cosmos 1354 Rocket 3.9 21:58:59 10° NNW 22:04:17 88° WSW 22:06:35 35° SSE
Cosmos 2263 Rocket 2.5 21:59:14 10° N 22:04:37 48° ENE 22:06:05 39° ESE
H-2A R/B 3.5 22:04:41 19° ENE 22:04:41 19° ENE 22:08:09 10° NNE
Cosmos 2322 Rocket 2.4 22:00:12 10° SSW 22:05:46 72° WNW 22:11:24 10° NNE
Cosmos 1733 Rocket 3.0 22:05:50 10° N 22:10:19 88° W 22:11:35 47° S
Cosmos 1655 Rocket 4.0 22:05:25 10° N 22:11:50 85° W 22:15:50 25° S
Helios 1B rocket 4.4 22:08:17 10° N 22:11:52 29° WNW 22:15:25 10° SW
Cosmos 1862 Rocket 3.6 22:11:07 27° SSW 22:13:31 77° W 22:18:00 10° N
Meteor 2-10 Rocket 3.8 22:11:52 38° SSE 22:14:00 61° E 22:19:44 10° NNE
Lacrosse 4 Rocket 1.3 22:11:07 10° NNW 22:15:28 89° ENE 22:16:01 68° SSE
Cosmos 2360 Rocket 2.3 22:15:51 47° SE 22:16:47 52° ESE 22:22:17 10° NNE
Cosmos 1825 3.1 22:13:26 10° NNW 22:17:04 45° W 22:18:16 33° SW
Cosmos 1862 3.5 22:15:16 10° NNW 22:19:16 69° W 22:19:52 58° SSW
Cosmos 397 4.3 22:16:07 10° NNW 22:20:19 74° ENE 22:20:20 74° ENE
Cosmos 2322 3.8 22:22:28 50° ESE 22:22:28 50° ESE 22:27:52 10° NNE
Cosmos 1939 Rocket 4.3 22:21:30 23° SW 22:23:21 35° W 22:27:05 10° NNW
NOAA 11 4.1 22:24:37 55° SE 22:25:44 72° ENE 22:31:13 10° N
Cosmos 968 Rocket 4.0 22:21:28 10° N 22:26:24 42° ENE 22:26:25 42° ENE
Envisat 4.4 22:23:11 14° SSW 22:26:57 34° W 22:31:34 10° NNW
YAOGAN 11 4.1 22:27:48 67° NE 22:27:48 67° NE 22:31:57 10° N
SL-16 R/B 3.3 22:27:33 10° SW 22:32:55 43° WNW 22:38:20 10° N
Cosmos 1703 Rocket 4.2 22:34:29 45° NE 22:34:29 45° NE 22:37:43 10° NNE
SPOT 5 2.9 22:34:04 65° ENE 22:34:04 65° ENE 22:38:42 10° N
Cosmos 2266 Rocket 4.0 22:31:14 10° N 22:37:28 66° E 22:38:21 59° ESE
MetOp-B 4.1 22:44:34 68° SSW 22:45:12 78° WSW 22:50:34 10° NNW
OAO 3 Rocket 3.7 22:41:02 10° W 22:44:57 53° WSW 22:44:57 53° WSW
ATLAS 5 CENTAUR R/B 2.6 22:40:53 10° NNW 22:46:51 58° NE 22:47:28 56° ENE
Meteor 1-26 Rocket 4.3 22:48:41 53° SSW 22:50:01 76° W 22:55:48 10° N
SEDSat Delta rocket 4.4 22:44:37 10° WSW 22:48:41 40° SSW 22:48:41 40° SSW
Nimbus 7 Rocket 4.3 22:45:34 10° NNE 22:51:31 84° ESE 22:52:11 72° S
SPOT 1/Viking Rocket 3.7 22:52:06 64° NE 22:52:06 64° NE 22:56:49 10° N
ARGOS 3.0 22:53:21 86° WSW 22:53:24 86° WSW 22:58:48 10° NNW
Cosmos 2278 Rocket 4.4 22:53:48 10° NNE 22:56:06 12° NE 22:56:09 12° NE
USA 234 4.0 22:54:42 36° SSW 22:56:12 40° SW 23:02:19 10° WNW
Cosmos 489 Rocket 4.4 22:54:12 10° NNW 23:00:34 81° WSW 23:01:08 74° SSW
Atlas Centaur 2 3.3 22:53:15 10° WSW 22:59:34 46° S 22:59:34 46° S
ERS-1 Rocket 4.3 23:02:11 29° WSW 23:03:13 32° W 23:07:42 10° NW
Cosmos 1844 Rocket 3.8 23:03:19 10° N 23:07:24 32° NE 23:07:24 32° NE
Nadezhda 2 Rocket 4.5 23:06:52 10° N 23:13:00 75° NE 23:13:00 75° NE
MOS 1-B Rocket 4.2 23:16:43 62° WSW 23:16:59 62° WSW 23:22:39 10° NNW
SeaSat 1 3.3 23:19:46 45° WNW 23:19:46 45° WNW 23:23:38 10° NW
H-2A R/B 4.0 23:21:27 25° N 23:21:27 25° N 23:23:22 10° N
Cosmos 2219 Rocket 4.1 23:27:00 19° NE 23:27:00 19° NE 23:28:32 10° NE
Terra 3.5 23:44:38 31° NNW 23:44:38 31° NNW 23:47:06 10° NNW
USA 229 DEB 4.2 23:39:03 29° WSW 23:42:26 54° NW 23:49:13 10° NNE
USA 229 4.2 23:39:21 31° WSW 23:42:31 55° NW 23:49:19 10° NNE
H-2A R/B 3.4 23:45:19 34° NW 23:45:19 34° NW 23:48:32 10° NNW
COSMOS 2428 3.7 23:46:58 43° N 23:46:58 43° N 23:50:55 10° NNE
Cosmos 2263 Rocket 4.1 23:44:09 10° NW 23:47:48 20° W 23:47:48 20° W
